Regional Weather Roundup
Issued by NWS Binghamton, NY

Home | Current Version | Previous Version | Text Only | Print | Product List | Glossary On
Versions: 1 2 3 4 5 6 7 8 9 10 11 12 13 14 15 16 17 18 19 20 21 22 23 24 25 26 27 28 29 30 31 32 33 34 35 36 37 38 39 40 41 42 43 44 45 46 47 48 49 50
000
ASUS41 KBGM 310810
RWRBGM

REGIONAL WEATHER ROUNDUP
NATIONAL WEATHER SERVICE BINGHAMTON NY
400 AM EDT WED AUG 31 2016

Note: "fair" indicates few or no clouds below 12,000 feet with no
significant weather and/or obstructions to visibility.

* = Station(s) that does not report precipitation, such as rain,
snow, etc, also no thunder or fog.

NYZ009-015>018-022>025-036-037-044>046-055>057-062-310900
...Central New York...

CITY           SKY/WX    TMP DP  RH WIND       PRES   REMARKS
Binghamton     CLOUDY    65  58  78 SW5       30.05F
Cortland       FAIR      59  59 100 CALM      30.04F
Dansville      CLOUDY    65  60  84 SE8       30.02F
Elmira         CLOUDY    62  59  90 CALM      30.02F
Ithaca         PTCLDY    60  58  92 E5        30.03F
Hamilton       CLEAR     59  57  94 CALM      30.03F
Hornell        LGT RAIN  63  61  94 SE3       30.07F
Monticello     CLOUDY    57  57 100 CALM      30.08S
Norwich        CLEAR     55  55 100 CALM      30.05S
Oneonta        CLEAR     59  59 100 CALM      30.05F
Penn Yan       CLOUDY    67  61  81 SW7       30.02F
Rome           CLOUDY    61  60  97 SE3       30.01F
Sidney         FOG       57  57 100 CALM      30.05S VSB 1/2
Syracuse       CLOUDY    65  58  78 CALM      29.99S
$$

PAZ038>040-043-044-047-048-072-310900
...Northeast Pennsylvania...

CITY           SKY/WX    TMP DP  RH WIND       PRES   REMARKS
Hazleton       CLOUDY    61  59  94 NE5       30.10F
Scranton       PTCLDY    64  59  83 CALM      30.04F
$$
&&
KEY
WCI = Wind Chill Index
VSB = Visibility
HX  = Heat Index
$$



USA.gov is the U.S. government's official web portal to all federal, state and local government web resources and services.